Voltar ao catálogo

ONEWEB-0497

AtivoComunicaçõesPO
NORAD 54116·PAYLOAD·🇬🇧 United Kingdom

Lançado Oct 22, 2022 de Satish Dhawan Space Centre

Loading…

Próximas Passagens (próximas 24 horas)

TLE

AtualizadoSource: CelesTrak SupGP

Época: Sep 14, 2026, 17:08 UTC

1 54116C 22138D   26257.71406667 -.00001363  00000+0 -34093-2 0  2574
2 54116  87.9117 287.1323 0001972  91.3559  22.9848 13.19729030    18

Acompanhe ONEWEB-0497 em tempo real com AllMySat

Download on the App Store